Year,Month,Day,Hour,Minute,Value (Times are PST for temperature in C)
2013,09,16,00,00,13.60
2013,09,16,00,01,13.60
2013,09,16,00,02,13.60
2013,09,16,00,03,13.70
2013,09,16,00,04,13.70
2013,09,16,00,05,13.80
2013,09,16,00,06,13.80
2013,09,16,00,07,13.80
2013,09,16,00,08,13.80
2013,09,16,00,09,13.80
2013,09,16,00,10,13.80
2013,09,16,00,11,13.80
2013,09,16,00,12,13.70
2013,09,16,00,13,13.70
2013,09,16,00,14,13.70
2013,09,16,00,15,13.70
2013,09,16,00,16,13.70
2013,09,16,00,17,13.70
2013,09,16,00,18,13.80
2013,09,16,00,19,13.80
2013,09,16,00,20,13.80
2013,09,16,00,21,13.90
2013,09,16,00,22,13.90
2013,09,16,00,23,13.90
2013,09,16,00,24,14.00
2013,09,16,00,25,14.00
2013,09,16,00,26,14.00
2013,09,16,00,27,14.00
2013,09,16,00,28,14.10
2013,09,16,00,29,14.10
2013,09,16,00,30,14.10
2013,09,16,00,31,14.20
2013,09,16,00,32,14.20
2013,09,16,00,33,14.20
2013,09,16,00,34,14.20
2013,09,16,00,35,14.20
2013,09,16,00,36,14.20
2013,09,16,00,37,14.20
2013,09,16,00,38,14.20
2013,09,16,00,39,14.30
2013,09,16,00,40,14.30
2013,09,16,00,41,14.30
2013,09,16,00,42,14.30
2013,09,16,00,43,14.30
2013,09,16,00,44,14.30
2013,09,16,00,45,14.40
2013,09,16,00,46,14.40
2013,09,16,00,47,14.40
2013,09,16,00,48,14.40
2013,09,16,00,49,14.40
2013,09,16,00,50,14.50
2013,09,16,00,51,14.50
2013,09,16,00,52,14.60
2013,09,16,00,53,14.60
2013,09,16,00,54,14.70
2013,09,16,00,55,14.80
2013,09,16,00,56,14.90
2013,09,16,00,57,14.90
2013,09,16,00,58,15.00
2013,09,16,00,59,15.10
2013,09,16,01,00,15.20
2013,09,16,01,01,15.30
2013,09,16,01,02,15.40
2013,09,16,01,03,15.40
2013,09,16,01,04,15.50
2013,09,16,01,05,15.60
2013,09,16,01,06,15.70
2013,09,16,01,07,15.70
2013,09,16,01,08,15.80
2013,09,16,01,09,15.90
2013,09,16,01,10,15.90
2013,09,16,01,11,16.00
2013,09,16,01,12,16.10
2013,09,16,01,13,16.20
2013,09,16,01,14,16.30
2013,09,16,01,15,16.40
2013,09,16,01,16,16.50
2013,09,16,01,17,16.60
2013,09,16,01,18,16.70
2013,09,16,01,19,16.70
2013,09,16,01,20,16.70
2013,09,16,01,21,16.80
2013,09,16,01,22,16.80
2013,09,16,01,23,16.80
2013,09,16,01,24,16.80
2013,09,16,01,25,16.80
2013,09,16,01,26,16.90
2013,09,16,01,27,16.90
2013,09,16,01,28,16.90
2013,09,16,01,29,17.00
2013,09,16,01,30,17.00
2013,09,16,01,31,17.10
2013,09,16,01,32,17.10
2013,09,16,01,33,17.10
2013,09,16,01,34,17.20
2013,09,16,01,35,17.20
2013,09,16,01,36,17.20
2013,09,16,01,37,17.20
2013,09,16,01,38,17.20
2013,09,16,01,39,17.20
2013,09,16,01,40,17.20
2013,09,16,01,41,17.20
2013,09,16,01,42,17.20
2013,09,16,01,43,17.20
2013,09,16,01,44,17.20
2013,09,16,01,45,17.20
2013,09,16,01,46,17.20
2013,09,16,01,47,17.20
2013,09,16,01,48,17.20
2013,09,16,01,49,17.20
2013,09,16,01,50,17.20
2013,09,16,01,51,17.20
2013,09,16,01,52,17.20
2013,09,16,01,53,17.30
2013,09,16,01,54,17.30
2013,09,16,01,55,17.30
2013,09,16,01,56,17.30
2013,09,16,01,57,17.30
2013,09,16,01,58,17.30
2013,09,16,01,59,17.30
2013,09,16,02,00,17.30
2013,09,16,02,01,17.40
2013,09,16,02,02,17.40
2013,09,16,02,03,17.40
2013,09,16,02,04,17.40
2013,09,16,02,05,17.40
2013,09,16,02,06,17.40
2013,09,16,02,07,17.40
2013,09,16,02,08,17.40
2013,09,16,02,09,17.40
2013,09,16,02,10,17.40
2013,09,16,02,11,17.40
2013,09,16,02,12,17.40
2013,09,16,02,13,17.40
2013,09,16,02,14,17.40
2013,09,16,02,15,17.40
2013,09,16,02,16,17.50
2013,09,16,02,17,17.50
2013,09,16,02,18,17.50
2013,09,16,02,19,17.60
2013,09,16,02,20,17.60
2013,09,16,02,21,17.60
2013,09,16,02,22,17.60
2013,09,16,02,23,17.60
2013,09,16,02,24,17.70
2013,09,16,02,25,17.70
2013,09,16,02,26,17.70
2013,09,16,02,27,17.70
2013,09,16,02,28,17.70
2013,09,16,02,29,17.70
2013,09,16,02,30,17.70
2013,09,16,02,31,17.70
2013,09,16,02,32,17.70
2013,09,16,02,33,17.70
2013,09,16,02,34,17.70
2013,09,16,02,35,17.70
2013,09,16,02,36,17.70
2013,09,16,02,37,17.70
2013,09,16,02,38,17.70
2013,09,16,02,39,17.70
2013,09,16,02,40,17.70
2013,09,16,02,41,17.70
2013,09,16,02,42,17.70
2013,09,16,02,43,17.70
2013,09,16,02,44,17.70
2013,09,16,02,45,17.70
2013,09,16,02,46,17.70
2013,09,16,02,47,17.70
2013,09,16,02,48,17.70
2013,09,16,02,49,17.70
2013,09,16,02,50,17.70
2013,09,16,02,51,17.70
2013,09,16,02,52,17.70
2013,09,16,02,53,17.70
2013,09,16,02,54,17.70
2013,09,16,02,55,17.70
2013,09,16,02,56,17.70
2013,09,16,02,57,17.70
2013,09,16,02,58,17.70
2013,09,16,02,59,17.70
2013,09,16,03,00,17.70
2013,09,16,03,01,17.70
2013,09,16,03,02,17.70
2013,09,16,03,03,17.70
2013,09,16,03,04,17.70
2013,09,16,03,05,17.70
2013,09,16,03,06,17.70
2013,09,16,03,07,17.70
2013,09,16,03,08,17.70
2013,09,16,03,09,17.70
2013,09,16,03,10,17.70
2013,09,16,03,11,17.70
2013,09,16,03,12,17.70
2013,09,16,03,13,17.70
2013,09,16,03,14,17.70
2013,09,16,03,15,17.70
2013,09,16,03,16,17.70
2013,09,16,03,17,17.70
2013,09,16,03,18,17.70
2013,09,16,03,19,17.70
2013,09,16,03,20,17.70
2013,09,16,03,21,17.70
2013,09,16,03,22,17.70
2013,09,16,03,23,17.70
2013,09,16,03,24,17.70
2013,09,16,03,25,17.60
2013,09,16,03,26,17.60
2013,09,16,03,27,17.60
2013,09,16,03,28,17.60
2013,09,16,03,29,17.60
2013,09,16,03,30,17.60
2013,09,16,03,31,17.60
2013,09,16,03,32,17.60
2013,09,16,03,33,17.60
2013,09,16,03,34,17.60
2013,09,16,03,35,17.60
2013,09,16,03,36,17.60
2013,09,16,03,37,17.60
2013,09,16,03,38,17.60
2013,09,16,03,39,17.60
2013,09,16,03,40,17.60
2013,09,16,03,41,17.60
2013,09,16,03,42,17.60
2013,09,16,03,43,17.60
2013,09,16,03,44,17.60
2013,09,16,03,45,17.60
2013,09,16,03,46,17.60
2013,09,16,03,47,17.60
2013,09,16,03,48,17.60
2013,09,16,03,49,17.60
2013,09,16,03,50,17.60
2013,09,16,03,51,17.50
2013,09,16,03,52,17.50
2013,09,16,03,53,17.50
2013,09,16,03,54,17.50
2013,09,16,03,55,17.50
2013,09,16,03,56,17.50
2013,09,16,03,57,17.50
2013,09,16,03,58,17.40
2013,09,16,03,59,17.40
2013,09,16,04,00,17.40
2013,09,16,04,01,17.40
2013,09,16,04,02,17.40
2013,09,16,04,03,17.40
2013,09,16,04,04,17.40
2013,09,16,04,05,17.40
2013,09,16,04,06,17.40
2013,09,16,04,07,17.40
2013,09,16,04,08,17.40
2013,09,16,04,09,17.30
2013,09,16,04,10,17.30
2013,09,16,04,11,17.30
2013,09,16,04,12,17.40
2013,09,16,04,13,17.30
2013,09,16,04,14,17.30
2013,09,16,04,15,17.30
2013,09,16,04,16,17.30
2013,09,16,04,17,17.30
2013,09,16,04,18,17.30
2013,09,16,04,19,17.30
2013,09,16,04,20,17.30
2013,09,16,04,21,17.30
2013,09,16,04,22,17.20
2013,09,16,04,23,17.20
2013,09,16,04,24,17.20
2013,09,16,04,25,17.20
2013,09,16,04,26,17.20
2013,09,16,04,27,17.20
2013,09,16,04,28,17.20
2013,09,16,04,29,17.20
2013,09,16,04,30,17.20
2013,09,16,04,31,17.20
2013,09,16,04,32,17.10
2013,09,16,04,33,17.10
2013,09,16,04,34,17.10
2013,09,16,04,35,17.10
2013,09,16,04,36,17.10
2013,09,16,04,37,17.20
2013,09,16,04,38,17.20
2013,09,16,04,39,17.20
2013,09,16,04,40,17.10
2013,09,16,04,41,17.10
2013,09,16,04,42,17.10
2013,09,16,04,43,17.10
2013,09,16,04,44,17.10
2013,09,16,04,45,17.10
2013,09,16,04,46,17.10
2013,09,16,04,47,17.10
2013,09,16,04,48,17.10
2013,09,16,04,49,17.10
2013,09,16,04,50,17.10
2013,09,16,04,51,17.10
2013,09,16,04,52,17.10
2013,09,16,04,53,17.10
2013,09,16,04,54,17.10
2013,09,16,04,55,17.10
2013,09,16,04,56,17.10
2013,09,16,04,57,17.10
2013,09,16,04,58,17.10
2013,09,16,04,59,17.10
2013,09,16,05,00,17.10
2013,09,16,05,01,17.10
2013,09,16,05,02,17.10
2013,09,16,05,03,17.10
2013,09,16,05,04,17.10
2013,09,16,05,05,17.10
2013,09,16,05,06,17.10
2013,09,16,05,07,17.10
2013,09,16,05,08,17.10
2013,09,16,05,09,17.10
2013,09,16,05,10,17.10
2013,09,16,05,11,17.10
2013,09,16,05,12,17.10
2013,09,16,05,13,17.10
2013,09,16,05,14,17.10
2013,09,16,05,15,17.00
2013,09,16,05,16,17.00
2013,09,16,05,17,17.00
2013,09,16,05,18,17.00
2013,09,16,05,19,17.00
2013,09,16,05,20,17.10
2013,09,16,05,21,17.10
2013,09,16,05,22,17.10
2013,09,16,05,23,17.10
2013,09,16,05,24,17.10
2013,09,16,05,25,17.10
2013,09,16,05,26,17.00
2013,09,16,05,27,17.10
2013,09,16,05,28,17.10
2013,09,16,05,29,17.00
2013,09,16,05,30,17.00
2013,09,16,05,31,17.00
2013,09,16,05,32,17.00
2013,09,16,05,33,17.00
2013,09,16,05,34,17.00
2013,09,16,05,35,17.00
2013,09,16,05,36,16.90
2013,09,16,05,37,16.90
2013,09,16,05,38,16.90
2013,09,16,05,39,16.90
2013,09,16,05,40,16.90
2013,09,16,05,41,16.90
2013,09,16,05,42,16.90
2013,09,16,05,43,16.90
2013,09,16,05,44,16.90
2013,09,16,05,45,16.90
2013,09,16,05,46,16.90
2013,09,16,05,47,16.90
2013,09,16,05,48,16.90
2013,09,16,05,49,16.90
2013,09,16,05,50,16.90
2013,09,16,05,51,16.90
2013,09,16,05,52,16.90
2013,09,16,05,53,16.90
2013,09,16,05,54,16.90
2013,09,16,05,55,16.90
2013,09,16,05,56,16.90
2013,09,16,05,57,16.90
2013,09,16,05,58,16.90
2013,09,16,05,59,16.90
2013,09,16,06,00,16.90
2013,09,16,06,01,16.90
2013,09,16,06,02,16.90
2013,09,16,06,03,16.90
2013,09,16,06,04,16.90
2013,09,16,06,05,16.90
2013,09,16,06,06,16.90
2013,09,16,06,07,16.90
2013,09,16,06,08,16.90
2013,09,16,06,09,17.00
2013,09,16,06,10,17.00
2013,09,16,06,11,17.00
2013,09,16,06,12,17.00
2013,09,16,06,13,17.00
2013,09,16,06,14,17.10
2013,09,16,06,15,17.10
2013,09,16,06,16,17.10
2013,09,16,06,17,17.10
2013,09,16,06,18,17.10
2013,09,16,06,19,17.10
2013,09,16,06,20,17.10
2013,09,16,06,21,17.20
2013,09,16,06,22,17.20
2013,09,16,06,23,17.20
2013,09,16,06,24,17.20
2013,09,16,06,25,17.30
2013,09,16,06,26,17.30
2013,09,16,06,27,17.30
2013,09,16,06,28,17.30
2013,09,16,06,29,17.20
2013,09,16,06,30,17.20
2013,09,16,06,31,17.20
2013,09,16,06,32,17.20
2013,09,16,06,33,17.20
2013,09,16,06,34,17.20
2013,09,16,06,35,17.10
2013,09,16,06,36,17.10
2013,09,16,06,37,17.10
2013,09,16,06,38,17.10
2013,09,16,06,39,17.10
2013,09,16,06,40,17.10
2013,09,16,06,41,17.10
2013,09,16,06,42,17.10
2013,09,16,06,43,17.10
2013,09,16,06,44,17.10
2013,09,16,06,45,17.10
2013,09,16,06,46,17.10
2013,09,16,06,47,17.10
2013,09,16,06,48,17.10
2013,09,16,06,49,17.10
2013,09,16,06,50,17.10
2013,09,16,06,51,17.10
2013,09,16,06,52,17.10
2013,09,16,06,53,17.10
2013,09,16,06,54,17.10
2013,09,16,06,55,17.10
2013,09,16,06,56,17.10
2013,09,16,06,57,17.10
2013,09,16,06,58,17.10
2013,09,16,06,59,17.20
2013,09,16,07,00,17.20
2013,09,16,07,01,17.10
2013,09,16,07,02,17.20
2013,09,16,07,03,17.20
2013,09,16,07,04,17.10
2013,09,16,07,05,17.10
2013,09,16,07,06,17.10
2013,09,16,07,07,17.10
2013,09,16,07,08,17.10
2013,09,16,07,09,17.10
2013,09,16,07,10,17.10
2013,09,16,07,11,17.10
2013,09,16,07,12,17.10
2013,09,16,07,13,17.10
2013,09,16,07,14,17.10
2013,09,16,07,15,17.10
2013,09,16,07,16,17.00
2013,09,16,07,17,17.00
2013,09,16,07,18,17.00
2013,09,16,07,19,16.90
2013,09,16,07,20,16.70
2013,09,16,07,21,16.50
2013,09,16,07,22,16.30
2013,09,16,07,23,16.20
2013,09,16,07,24,16.10
2013,09,16,07,25,15.90
2013,09,16,07,26,15.80
2013,09,16,07,27,15.80
2013,09,16,07,28,15.70
2013,09,16,07,29,15.60
2013,09,16,07,30,15.60
2013,09,16,07,31,15.50
2013,09,16,07,32,15.50
2013,09,16,07,33,15.50
2013,09,16,07,34,15.50
2013,09,16,07,35,15.60
2013,09,16,07,36,15.60
2013,09,16,07,37,15.70
2013,09,16,07,38,15.70
2013,09,16,07,39,15.70
2013,09,16,07,40,15.70
2013,09,16,07,41,15.70
2013,09,16,07,42,15.70
2013,09,16,07,43,15.70
2013,09,16,07,44,15.70
2013,09,16,07,45,15.80
2013,09,16,07,46,15.80
2013,09,16,07,47,15.80
2013,09,16,07,48,15.90
2013,09,16,07,49,15.90
2013,09,16,07,50,15.90
2013,09,16,07,51,15.90
2013,09,16,07,52,16.00
2013,09,16,07,53,16.00
2013,09,16,07,54,16.00
2013,09,16,07,55,16.10
2013,09,16,07,56,16.10
2013,09,16,07,57,16.10
2013,09,16,07,58,16.00
2013,09,16,07,59,15.80
2013,09,16,08,00,15.50
2013,09,16,08,01,15.30
2013,09,16,08,02,15.10
2013,09,16,08,03,14.90
2013,09,16,08,04,14.80
2013,09,16,08,05,14.70
2013,09,16,08,06,14.60
2013,09,16,08,07,14.50
2013,09,16,08,08,14.50
2013,09,16,08,09,14.40
2013,09,16,08,10,14.40
2013,09,16,08,11,14.40
2013,09,16,08,12,14.30
2013,09,16,08,13,14.30
2013,09,16,08,14,14.30
2013,09,16,08,15,14.30
2013,09,16,08,16,14.30
2013,09,16,08,17,14.30
2013,09,16,08,18,14.30
2013,09,16,08,19,14.30
2013,09,16,08,20,14.40
2013,09,16,08,21,14.40
2013,09,16,08,22,14.40
2013,09,16,08,23,14.50
2013,09,16,08,24,14.50
2013,09,16,08,25,14.60
2013,09,16,08,26,14.60
2013,09,16,08,27,14.60
2013,09,16,08,28,14.70
2013,09,16,08,29,14.70
2013,09,16,08,30,14.70
2013,09,16,08,31,14.70
2013,09,16,08,32,14.80
2013,09,16,08,33,14.80
2013,09,16,08,34,14.80
2013,09,16,08,35,14.80
2013,09,16,08,36,14.90
2013,09,16,08,37,14.90
2013,09,16,08,38,14.90
2013,09,16,08,39,14.90
2013,09,16,08,40,15.00
2013,09,16,08,41,15.00
2013,09,16,08,42,15.00
2013,09,16,08,43,15.00
2013,09,16,08,44,15.00
2013,09,16,08,45,15.00
2013,09,16,08,46,15.00
2013,09,16,08,47,15.00
2013,09,16,08,48,15.00
2013,09,16,08,49,15.00
2013,09,16,08,50,15.00
2013,09,16,08,51,14.90
2013,09,16,08,52,14.90
2013,09,16,08,53,14.90
2013,09,16,08,54,14.80
2013,09,16,08,55,14.80
2013,09,16,08,56,14.80
2013,09,16,08,57,14.80
2013,09,16,08,58,14.80
2013,09,16,08,59,14.80
2013,09,16,09,00,14.80
2013,09,16,09,01,14.80
2013,09,16,09,02,14.80
2013,09,16,09,03,14.80
2013,09,16,09,04,14.80
2013,09,16,09,05,14.80
2013,09,16,09,06,14.80
2013,09,16,09,07,14.80
2013,09,16,09,08,14.90
2013,09,16,09,09,14.90
2013,09,16,09,10,14.90
2013,09,16,09,11,14.90
2013,09,16,09,12,14.90
2013,09,16,09,13,14.90
2013,09,16,09,14,14.90
2013,09,16,09,15,14.90
2013,09,16,09,16,14.90
2013,09,16,09,17,14.90
2013,09,16,09,18,14.90
2013,09,16,09,19,14.90
2013,09,16,09,20,14.90
2013,09,16,09,21,14.90
2013,09,16,09,22,14.90
2013,09,16,09,23,14.90
2013,09,16,09,24,14.90
2013,09,16,09,25,14.90
2013,09,16,09,26,14.80
2013,09,16,09,27,14.80
2013,09,16,09,28,14.90
2013,09,16,09,29,14.80
2013,09,16,09,30,14.80
2013,09,16,09,31,14.80
2013,09,16,09,32,14.80
2013,09,16,09,33,14.80
2013,09,16,09,34,14.80
2013,09,16,09,35,14.80
2013,09,16,09,36,14.80
2013,09,16,09,37,14.80
2013,09,16,09,38,14.80
2013,09,16,09,39,14.80
2013,09,16,09,40,14.80
2013,09,16,09,41,14.80
2013,09,16,09,42,14.80
2013,09,16,09,43,14.80
2013,09,16,09,44,14.80
2013,09,16,09,45,14.80
2013,09,16,09,46,14.80
2013,09,16,09,47,14.80
2013,09,16,09,48,14.80
2013,09,16,09,49,14.80
2013,09,16,09,50,14.70
2013,09,16,09,51,14.70
2013,09,16,09,52,14.70
2013,09,16,09,53,14.70
2013,09,16,09,54,14.70
2013,09,16,09,55,14.60
2013,09,16,09,56,14.60
2013,09,16,09,57,14.60
2013,09,16,09,58,14.60
2013,09,16,09,59,14.50
2013,09,16,10,00,14.50
2013,09,16,10,01,14.50
2013,09,16,10,02,14.50
2013,09,16,10,03,14.40
2013,09,16,10,04,14.40
2013,09,16,10,05,14.40
2013,09,16,10,06,14.40
2013,09,16,10,07,14.40
2013,09,16,10,08,14.40
2013,09,16,10,09,14.40
2013,09,16,10,10,14.40
2013,09,16,10,11,14.40
2013,09,16,10,12,14.40
2013,09,16,10,13,14.30
2013,09,16,10,14,14.30
2013,09,16,10,15,14.40
2013,09,16,10,16,14.40
2013,09,16,10,17,14.40
2013,09,16,10,18,14.50
2013,09,16,10,19,14.50
2013,09,16,10,20,14.50
2013,09,16,10,21,14.60
2013,09,16,10,22,14.60
2013,09,16,10,23,14.60
2013,09,16,10,24,14.60
2013,09,16,10,25,14.60
2013,09,16,10,26,14.60
2013,09,16,10,27,14.60
2013,09,16,10,28,14.60
2013,09,16,10,29,14.50
2013,09,16,10,30,14.50
2013,09,16,10,31,14.50
2013,09,16,10,32,14.50
2013,09,16,10,33,14.40
2013,09,16,10,34,14.40
2013,09,16,10,35,14.40
2013,09,16,10,36,14.40
2013,09,16,10,37,14.40
2013,09,16,10,38,14.30
2013,09,16,10,39,14.30
2013,09,16,10,40,14.30
2013,09,16,10,41,14.30
2013,09,16,10,42,14.40
2013,09,16,10,43,14.40
2013,09,16,10,44,14.40
2013,09,16,10,45,14.40
2013,09,16,10,46,14.40
2013,09,16,10,47,14.40
2013,09,16,10,48,14.40
2013,09,16,10,49,14.40
2013,09,16,10,50,14.40
2013,09,16,10,51,14.40
2013,09,16,10,52,14.40
2013,09,16,10,53,14.40
2013,09,16,10,54,14.40
2013,09,16,10,55,14.40
2013,09,16,10,56,14.40
2013,09,16,10,57,14.40
2013,09,16,10,58,14.40
2013,09,16,10,59,14.40
2013,09,16,11,00,14.40
2013,09,16,11,01,14.40
2013,09,16,11,02,14.50
2013,09,16,11,03,14.50
2013,09,16,11,04,14.50
2013,09,16,11,05,14.50
2013,09,16,11,06,14.60
2013,09,16,11,07,14.60
2013,09,16,11,08,14.60
2013,09,16,11,09,14.60
2013,09,16,11,10,14.60
2013,09,16,11,11,14.70
2013,09,16,11,12,14.70
2013,09,16,11,13,14.70
2013,09,16,11,14,14.70
2013,09,16,11,15,14.80
2013,09,16,11,16,14.80
2013,09,16,11,17,14.80
2013,09,16,11,18,14.90
2013,09,16,11,19,14.90
2013,09,16,11,20,15.00
2013,09,16,11,21,15.00
2013,09,16,11,22,15.10
2013,09,16,11,23,15.20
2013,09,16,11,24,15.20
2013,09,16,11,25,15.30
2013,09,16,11,26,15.50
2013,09,16,11,27,15.60
2013,09,16,11,28,15.70
2013,09,16,11,29,15.80
2013,09,16,11,30,15.90
2013,09,16,11,31,16.00
2013,09,16,11,32,16.20
2013,09,16,11,33,16.30
2013,09,16,11,34,16.30
2013,09,16,11,35,16.40
2013,09,16,11,36,16.50
2013,09,16,11,37,16.60
2013,09,16,11,38,16.60
2013,09,16,11,39,16.60
2013,09,16,11,40,16.70
2013,09,16,11,41,16.70
2013,09,16,11,42,16.80
2013,09,16,11,43,16.80
2013,09,16,11,44,16.90
2013,09,16,11,45,16.90
2013,09,16,11,46,17.00
2013,09,16,11,47,17.10
2013,09,16,11,48,17.10
2013,09,16,11,49,17.20
2013,09,16,11,50,17.20
2013,09,16,11,51,17.20
2013,09,16,11,52,17.20
2013,09,16,11,53,17.30
2013,09,16,11,54,17.30
2013,09,16,11,55,17.30
2013,09,16,11,56,17.40
2013,09,16,11,57,17.40
2013,09,16,11,58,17.50
2013,09,16,11,59,17.50
2013,09,16,12,00,17.60
2013,09,16,12,01,17.60
2013,09,16,12,02,17.60
2013,09,16,12,03,17.60
2013,09,16,12,04,17.70
2013,09,16,12,05,17.70
2013,09,16,12,06,17.70
2013,09,16,12,07,17.70
2013,09,16,12,08,17.80
2013,09,16,12,09,17.80
2013,09,16,12,10,17.80
2013,09,16,12,11,17.80
2013,09,16,12,12,17.90
2013,09,16,12,13,17.90
2013,09,16,12,14,17.90
2013,09,16,12,15,17.90
2013,09,16,12,16,17.90
2013,09,16,12,17,17.90
2013,09,16,12,18,17.90
2013,09,16,12,19,18.00
2013,09,16,12,20,18.00
2013,09,16,12,21,18.10
2013,09,16,12,22,18.10
2013,09,16,12,23,18.10
2013,09,16,12,24,18.10
2013,09,16,12,25,18.20
2013,09,16,12,26,18.20
2013,09,16,12,27,18.20
2013,09,16,12,28,18.20
2013,09,16,12,29,18.20
2013,09,16,12,30,18.30
2013,09,16,12,31,18.30
2013,09,16,12,32,18.40
2013,09,16,12,33,18.40
2013,09,16,12,34,18.50
2013,09,16,12,35,18.50
2013,09,16,12,36,18.60
2013,09,16,12,37,18.60
2013,09,16,12,38,18.70
2013,09,16,12,39,18.70
2013,09,16,12,40,18.80
2013,09,16,12,41,18.80
2013,09,16,12,42,18.90
2013,09,16,12,43,18.90
2013,09,16,12,44,19.00
2013,09,16,12,45,19.10
2013,09,16,12,46,19.10
2013,09,16,12,47,19.20
2013,09,16,12,48,19.20
2013,09,16,12,49,19.30
2013,09,16,12,50,19.30
2013,09,16,12,51,19.40
2013,09,16,12,52,19.30
2013,09,16,12,53,19.30
2013,09,16,12,54,19.30
2013,09,16,12,55,19.30
2013,09,16,12,56,19.30
2013,09,16,12,57,19.40
2013,09,16,12,58,19.40
2013,09,16,12,59,19.50
2013,09,16,13,00,19.50
2013,09,16,13,01,19.50
2013,09,16,13,02,19.50
2013,09,16,13,03,19.50
2013,09,16,13,04,19.60
2013,09,16,13,05,19.60
2013,09,16,13,06,19.60
2013,09,16,13,07,19.60
2013,09,16,13,08,19.70
2013,09,16,13,09,19.70
2013,09,16,13,10,19.80
2013,09,16,13,11,19.80
2013,09,16,13,12,19.90
2013,09,16,13,13,19.90
2013,09,16,13,14,19.90
2013,09,16,13,15,20.00
2013,09,16,13,16,20.00
2013,09,16,13,17,20.00
2013,09,16,13,18,20.10
2013,09,16,13,19,20.10
2013,09,16,13,20,20.10
2013,09,16,13,21,20.10
2013,09,16,13,22,20.00
2013,09,16,13,23,20.00
2013,09,16,13,24,20.10
2013,09,16,13,25,20.10
2013,09,16,13,26,20.10
2013,09,16,13,27,20.20
2013,09,16,13,28,20.20
2013,09,16,13,29,20.20
2013,09,16,13,30,20.20
2013,09,16,13,31,20.20
2013,09,16,13,32,20.20
2013,09,16,13,33,20.10
2013,09,16,13,34,20.00
2013,09,16,13,35,20.00
2013,09,16,13,36,20.00
2013,09,16,13,37,20.00
2013,09,16,13,38,20.00
2013,09,16,13,39,20.00
2013,09,16,13,40,19.90
2013,09,16,13,41,19.80
2013,09,16,13,42,19.60
2013,09,16,13,43,19.50
2013,09,16,13,44,19.40
2013,09,16,13,45,19.40
2013,09,16,13,46,19.30
2013,09,16,13,47,19.30
2013,09,16,13,48,19.30
2013,09,16,13,49,19.40
2013,09,16,13,50,19.40
2013,09,16,13,51,19.40
2013,09,16,13,52,19.40
2013,09,16,13,53,19.40
2013,09,16,13,54,19.40
2013,09,16,13,55,19.40
2013,09,16,13,56,19.40
2013,09,16,13,57,19.40
2013,09,16,13,58,19.40
2013,09,16,13,59,19.40
2013,09,16,14,00,19.40
2013,09,16,14,01,19.40
2013,09,16,14,02,19.40
2013,09,16,14,03,19.40
2013,09,16,14,04,19.40
2013,09,16,14,05,19.40
2013,09,16,14,06,19.40
2013,09,16,14,07,19.40
2013,09,16,14,08,19.40
2013,09,16,14,09,19.40
2013,09,16,14,10,19.40
2013,09,16,14,11,19.40
2013,09,16,14,12,19.50
2013,09,16,14,13,19.50
2013,09,16,14,14,19.60
2013,09,16,14,15,19.60
2013,09,16,14,16,19.70
2013,09,16,14,17,19.80
2013,09,16,14,18,19.90
2013,09,16,14,19,19.90
2013,09,16,14,20,20.00
2013,09,16,14,21,20.00
2013,09,16,14,22,19.90
2013,09,16,14,23,19.90
2013,09,16,14,24,19.80
2013,09,16,14,25,19.80
2013,09,16,14,26,19.70
2013,09,16,14,27,19.60
2013,09,16,14,28,19.60
2013,09,16,14,29,19.60
2013,09,16,14,30,19.50
2013,09,16,14,31,19.50
2013,09,16,14,32,19.50
2013,09,16,14,33,19.50
2013,09,16,14,34,19.50
2013,09,16,14,35,19.50
2013,09,16,14,36,19.50
2013,09,16,14,37,19.50
2013,09,16,14,38,19.50
2013,09,16,14,39,19.40
2013,09,16,14,40,19.40
2013,09,16,14,41,19.40
2013,09,16,14,42,19.40
2013,09,16,14,43,19.40
2013,09,16,14,44,19.40
2013,09,16,14,45,19.40
2013,09,16,14,46,19.40
2013,09,16,14,47,19.40
2013,09,16,14,48,19.40
2013,09,16,14,49,19.40
2013,09,16,14,50,19.40
2013,09,16,14,51,19.30
2013,09,16,14,52,19.30
2013,09,16,14,53,19.30
2013,09,16,14,54,19.20
2013,09,16,14,55,19.30
2013,09,16,14,56,19.20
2013,09,16,14,57,19.20
2013,09,16,14,58,19.30
2013,09,16,14,59,19.30
2013,09,16,15,00,19.30
2013,09,16,15,01,19.40
2013,09,16,15,02,19.40
2013,09,16,15,03,19.50
2013,09,16,15,04,19.50
2013,09,16,15,05,19.60
2013,09,16,15,06,19.60
2013,09,16,15,07,19.70
2013,09,16,15,08,19.70
2013,09,16,15,09,19.70
2013,09,16,15,10,19.70
2013,09,16,15,11,19.70
2013,09,16,15,12,19.60
2013,09,16,15,13,19.60
2013,09,16,15,14,19.60
2013,09,16,15,15,19.60
2013,09,16,15,16,19.60
2013,09,16,15,17,19.70
2013,09,16,15,18,19.70
2013,09,16,15,19,19.60
2013,09,16,15,20,19.60
2013,09,16,15,21,19.60
2013,09,16,15,22,19.50
2013,09,16,15,23,19.40
2013,09,16,15,24,19.40
2013,09,16,15,25,19.40
2013,09,16,15,26,19.30
2013,09,16,15,27,19.20
2013,09,16,15,28,19.20
2013,09,16,15,29,19.10
2013,09,16,15,30,19.00
2013,09,16,15,31,19.00
2013,09,16,15,32,19.00
2013,09,16,15,33,18.90
2013,09,16,15,34,18.90
2013,09,16,15,35,18.90
2013,09,16,15,36,18.90
2013,09,16,15,37,18.90
2013,09,16,15,38,18.90
2013,09,16,15,39,18.90
2013,09,16,15,40,18.90
2013,09,16,15,41,18.90
2013,09,16,15,42,18.90
2013,09,16,15,43,18.90
2013,09,16,15,44,18.90
2013,09,16,15,45,19.00
2013,09,16,15,46,19.00
2013,09,16,15,47,18.90
2013,09,16,15,48,19.00
2013,09,16,15,49,19.00
2013,09,16,15,50,19.00
2013,09,16,15,51,19.00
2013,09,16,15,52,19.00
2013,09,16,15,53,19.00
2013,09,16,15,54,19.00
2013,09,16,15,55,19.00
2013,09,16,15,56,18.90
2013,09,16,15,57,18.90
2013,09,16,15,58,18.90
2013,09,16,15,59,18.90
2013,09,16,16,00,18.90
2013,09,16,16,01,18.80
2013,09,16,16,02,18.80
2013,09,16,16,03,18.80
2013,09,16,16,04,18.80
2013,09,16,16,05,18.80
2013,09,16,16,06,18.70
2013,09,16,16,07,18.70
2013,09,16,16,08,18.70
2013,09,16,16,09,18.70
2013,09,16,16,10,18.70
2013,09,16,16,11,18.70
2013,09,16,16,12,18.70
2013,09,16,16,13,18.70
2013,09,16,16,14,18.70
2013,09,16,16,15,18.70
2013,09,16,16,16,18.70
2013,09,16,16,17,18.70
2013,09,16,16,18,18.70
2013,09,16,16,19,18.70
2013,09,16,16,20,18.70
2013,09,16,16,21,18.70
2013,09,16,16,22,18.70
2013,09,16,16,23,18.80
2013,09,16,16,24,18.80
2013,09,16,16,25,18.80
2013,09,16,16,26,18.80
2013,09,16,16,27,18.80
2013,09,16,16,28,18.80
2013,09,16,16,29,18.80
2013,09,16,16,30,18.80
2013,09,16,16,31,18.80
2013,09,16,16,32,18.70
2013,09,16,16,33,18.70
2013,09,16,16,34,18.70
2013,09,16,16,35,18.70
2013,09,16,16,36,18.60
2013,09,16,16,37,18.60
2013,09,16,16,38,18.60
2013,09,16,16,39,18.50
2013,09,16,16,40,18.50
2013,09,16,16,41,18.40
2013,09,16,16,42,18.40
2013,09,16,16,43,18.40
2013,09,16,16,44,18.40
2013,09,16,16,45,18.40
2013,09,16,16,46,18.40
2013,09,16,16,47,18.40
2013,09,16,16,48,18.40
2013,09,16,16,49,18.40
2013,09,16,16,50,18.40
2013,09,16,16,51,18.50
2013,09,16,16,52,18.50
2013,09,16,16,53,18.50
2013,09,16,16,54,18.50
2013,09,16,16,55,18.50
2013,09,16,16,56,18.40
2013,09,16,16,57,18.40
2013,09,16,16,58,18.40
2013,09,16,16,59,18.40
2013,09,16,17,00,18.40
2013,09,16,17,01,18.40
2013,09,16,17,02,18.40
2013,09,16,17,03,18.40
2013,09,16,17,04,18.40
2013,09,16,17,05,18.40
2013,09,16,17,06,18.40
2013,09,16,17,07,18.40
2013,09,16,17,08,18.40
2013,09,16,17,09,18.40
2013,09,16,17,10,18.40
2013,09,16,17,11,18.40
2013,09,16,17,12,18.30
2013,09,16,17,13,18.30
2013,09,16,17,14,18.30
2013,09,16,17,15,18.30
2013,09,16,17,16,18.20
2013,09,16,17,17,18.20
2013,09,16,17,18,18.20
2013,09,16,17,19,18.20